• In Slovakia
  • List of Countries
  • For 7 days
  • Water Temperature
  • Satellite Maps
  • Weather Map
  • Weather Widgets
  • user-avatar
    Login

    Hourly Weather Gold Coast

    Today, 17 November, Friday

    Time Temperature Precipitation Wind Pressure Humidity
    00:00 +19°C° 0 mm 2 mps 759 mmHg 83%
    01:00 +18°C° 0 mm 2 mps 759 mmHg 84%
    02:00 +18°C° 0 mm 2 mps 759 mmHg 84%
    03:00 +18°C° 0 mm 2 mps 758 mmHg 84%
    04:00 +19°C° 0 mm 1 mps 758 mmHg 85%
    05:00 +21°C° 0 mm 1 mps 759 mmHg 79%
    06:00 +21°C° 0 mm 2 mps 759 mmHg 73%
    07:00 +24°C° 0 mm 2 mps 759 mmHg 67%
    08:00 +24°C° 0 mm 2 mps 759 mmHg 63%
    09:00 +25°C° 0 mm 3 mps 759 mmHg 60%
    10:00 +27°C° 0 mm 3 mps 760 mmHg 50%
    11:00 +26°C° 0 mm 3 mps 759 mmHg 51%
    12:00 +26°C° 0 mm 3 mps 759 mmHg 51%
    13:00 +26°C° 0 mm 4 mps 759 mmHg 51%
    14:00 +26°C° 0 mm 4 mps 759 mmHg 51%
    15:00 +26°C° 0 mm 4 mps 759 mmHg 52%
    16:00 +25°C° 0 mm 3 mps 758 mmHg 57%
    17:00 +24°C° 0 mm 3 mps 759 mmHg 62%
    18:00 +21°C° 0 mm 3 mps 759 mmHg 68%
    19:00 +20°C° 0 mm 3 mps 759 mmHg 74%
    20:00 +20°C° 0 mm 3 mps 759 mmHg 75%
    21:00 +19°C° 0 mm 3 mps 759 mmHg 76%
    22:00 +19°C° 0 mm 3 mps 759 mmHg 77%
    23:00 +19°C° 0.1 mm 3 mps 759 mmHg 79%

    Tomorrow, 18 November, Saturday

    Time Temperature Precipitation Wind Pressure Humidity
    00:00 +19°C° 0.1 mm 3 mps 759 mmHg 81%
    01:00 +18°C° 0.1 mm 3 mps 758 mmHg 83%
    02:00 +18°C° 0.3 mm 3 mps 758 mmHg 85%
    03:00 +18°C° 0.3 mm 3 mps 758 mmHg 87%
    04:00 +18°C° 0.3 mm 4 mps 758 mmHg 89%
    05:00 +19°C° 0.5 mm 4 mps 758 mmHg 87%
    06:00 +20°C° 0.5 mm 4 mps 759 mmHg 85%
    07:00 +21°C° 0.5 mm 4 mps 759 mmHg 84%
    08:00 +21°C° 0.7 mm 5 mps 759 mmHg 83%
    09:00 +21°C° 0.7 mm 5 mps 759 mmHg 83%
    10:00 +21°C° 0.7 mm 5 mps 759 mmHg 83%
    11:00 +21°C° 1 mm 5 mps 759 mmHg 84%
    12:00 +21°C° 1 mm 5 mps 759 mmHg 86%
    13:00 +21°C° 1 mm 5 mps 758 mmHg 87%
    14:00 +21°C° 0.7 mm 4 mps 758 mmHg 85%
    15:00 +21°C° 0.7 mm 4 mps 758 mmHg 84%
    16:00 +21°C° 0.7 mm 4 mps 758 mmHg 82%
    17:00 +20°C° 0.1 mm 4 mps 758 mmHg 83%
    18:00 +19°C° 0.1 mm 4 mps 758 mmHg 85%
    19:00 +19°C° 0.1 mm 4 mps 759 mmHg 86%
    20:00 +19°C° 0.1 mm 4 mps 759 mmHg 86%
    21:00 +18°C° 0.1 mm 4 mps 759 mmHg 87%
    22:00 +18°C° 0.1 mm 4 mps 759 mmHg 88%
    23:00 +18°C° 0.2 mm 3 mps 759 mmHg 88%

    Day after tomorrow, 19 November, Sunday

    Time Temperature Precipitation Wind Pressure Humidity
    00:00 +18°C° 0.2 mm 3 mps 759 mmHg 89%
    01:00 +17°C° 0.2 mm 3 mps 758 mmHg 90%
    02:00 +17°C° 0.3 mm 3 mps 758 mmHg 91%
    03:00 +17°C° 0.3 mm 3 mps 758 mmHg 92%
    04:00 +17°C° 0.3 mm 3 mps 758 mmHg 92%
    05:00 +18°C° 0.3 mm 4 mps 758 mmHg 90%
    06:00 +19°C° 0.3 mm 4 mps 759 mmHg 87%
    07:00 +20°C° 0.3 mm 4 mps 759 mmHg 84%
    08:00 +22°C° 0.3 mm 4 mps 759 mmHg 76%
    09:00 +23°C° 0.3 mm 4 mps 759 mmHg 68%
    10:00 +25°C° 0.3 mm 5 mps 759 mmHg 60%
    11:00 +26°C° 0.1 mm 5 mps 759 mmHg 56%
    12:00 +26°C° 0.1 mm 5 mps 759 mmHg 53%
    13:00 +27°C° 0.1 mm 5 mps 759 mmHg 50%
    14:00 +26°C° 0.3 mm 5 mps 759 mmHg 57%
    15:00 +25°C° 0.3 mm 5 mps 758 mmHg 64%
    16:00 +23°C° 0.3 mm 5 mps 758 mmHg 71%
    17:00 +21°C° 0.1 mm 5 mps 759 mmHg 75%
    18:00 +20°C° 0.1 mm 5 mps 759 mmHg 80%
    19:00 +19°C° 0.1 mm 4 mps 760 mmHg 85%
    20:00 +18°C° 0.1 mm 4 mps 760 mmHg 86%
    21:00 +18°C° 0.1 mm 4 mps 760 mmHg 86%
    22:00 +17°C° 0.1 mm 4 mps 760 mmHg 87%
    23:00 +17°C° 0.1 mm 4 mps 760 mmHg 88%

    20 November, Monday

    Time Temperature Precipitation Wind Pressure Humidity
    00:00 +17°C° 0.1 mm 3 mps 760 mmHg 90%
    01:00 +17°C° 0.1 mm 3 mps 759 mmHg 91%
    02:00 +17°C° 0.3 mm 3 mps 759 mmHg 92%
    03:00 +17°C° 0.3 mm 4 mps 759 mmHg 93%
    04:00 +17°C° 0.3 mm 4 mps 759 mmHg 93%
    05:00 +18°C° 0.4 mm 4 mps 760 mmHg 89%
    06:00 +19°C° 0.4 mm 5 mps 760 mmHg 86%
    07:00 +20°C° 0.4 mm 5 mps 761 mmHg 82%
    08:00 +22°C° 0.3 mm 6 mps 761 mmHg 71%
    09:00 +24°C° 0.3 mm 6 mps 761 mmHg 60%
    10:00 +26°C° 0.3 mm 6 mps 761 mmHg 49%
    11:00 +27°C° 0.1 mm 6 mps 761 mmHg 47%
    12:00 +27°C° 0.1 mm 6 mps 760 mmHg 45%
    13:00 +28°C° 0.1 mm 6 mps 760 mmHg 43%
    14:00 +27°C° 0 mm 6 mps 760 mmHg 46%
    15:00 +27°C° 0 mm 7 mps 759 mmHg 49%
    16:00 +26°C° 0 mm 7 mps 759 mmHg 51%
    17:00 +23°C° 0 mm 6 mps 760 mmHg 60%
    18:00 +21°C° 0 mm 6 mps 760 mmHg 68%
    19:00 +20°C° 0 mm 5 mps 761 mmHg 76%
    20:00 +19°C° 0.2 mm 5 mps 761 mmHg 81%
    21:00 +17°C° 0.2 mm 5 mps 761 mmHg 85%
    22:00 +18°C° 0.2 mm 4 mps 761 mmHg 89%
    23:00 +17°C° 0.6 mm 5 mps 761 mmHg 90%

    21 November, Tuesday

    Time Temperature Precipitation Wind Pressure Humidity
    00:00 +16°C° 0.6 mm 5 mps 760 mmHg 91%
    01:00 +16°C° 0.6 mm 5 mps 760 mmHg 93%
    02:00 +16°C° 0.7 mm 5 mps 760 mmHg 93%
    03:00 +16°C° 0.7 mm 5 mps 759 mmHg 93%
    04:00 +16°C° 0.7 mm 5 mps 759 mmHg 93%
    05:00 +19°C° 0.5 mm 5 mps 760 mmHg 88%
    06:00 +20°C° 0.5 mm 6 mps 760 mmHg 83%
    07:00 +21°C° 0.5 mm 6 mps 760 mmHg 78%
    08:00 +22°C° 0.3 mm 6 mps 760 mmHg 69%
    09:00 +24°C° 0.3 mm 6 mps 760 mmHg 60%
    10:00 +26°C° 0.3 mm 6 mps 760 mmHg 51%
    11:00 +27°C° 0.1 mm 6 mps 760 mmHg 49%
    12:00 +28°C° 0.1 mm 6 mps 759 mmHg 46%
    13:00 +28°C° 0.1 mm 6 mps 759 mmHg 43%
    14:00 +27°C° 0.1 mm 6 mps 759 mmHg 46%
    15:00 +27°C° 0.1 mm 6 mps 759 mmHg 49%
    16:00 +26°C° 0.1 mm 6 mps 759 mmHg 51%
    17:00 +23°C° 0.1 mm 6 mps 759 mmHg 60%
    18:00 +22°C° 0.1 mm 6 mps 759 mmHg 68%
    19:00 +20°C° 0.1 mm 6 mps 760 mmHg 77%
    20:00 +19°C° 0.1 mm 6 mps 760 mmHg 80%
    21:00 +19°C° 0.1 mm 5 mps 760 mmHg 83%
    22:00 +17°C° 0.1 mm 5 mps 760 mmHg 86%
    23:00 +17°C° 0.3 mm 5 mps 759 mmHg 86%

    22 November, Wednesday

    Time Temperature Precipitation Wind Pressure Humidity
    00:00 +16°C° 0.3 mm 5 mps 759 mmHg 87%
    01:00 +17°C° 0.3 mm 4 mps 758 mmHg 88%
    02:00 +17°C° 0.3 mm 4 mps 758 mmHg 88%
    03:00 +16°C° 0.3 mm 5 mps 758 mmHg 88%
    04:00 +16°C° 0.3 mm 5 mps 757 mmHg 89%
    05:00 +18°C° 0.3 mm 4 mps 758 mmHg 86%
    06:00 +19°C° 0.3 mm 4 mps 758 mmHg 83%
    07:00 +20°C° 0.3 mm 4 mps 759 mmHg 80%
    08:00 +21°C° 0.2 mm 4 mps 759 mmHg 72%
    09:00 +23°C° 0.2 mm 5 mps 759 mmHg 65%
    10:00 +25°C° 0.2 mm 5 mps 758 mmHg 57%
    11:00 +25°C° 0.3 mm 5 mps 758 mmHg 56%
    12:00 +26°C° 0.3 mm 5 mps 758 mmHg 56%
    13:00 +26°C° 0.3 mm 5 mps 757 mmHg 55%
    14:00 +26°C° 0.2 mm 5 mps 757 mmHg 56%
    15:00 +26°C° 0.2 mm 5 mps 757 mmHg 57%
    16:00 +25°C° 0.2 mm 5 mps 757 mmHg 58%
    17:00 +23°C° 0.1 mm 5 mps 758 mmHg 66%
    18:00 +21°C° 0.1 mm 4 mps 758 mmHg 73%
    19:00 +20°C° 0.1 mm 4 mps 758 mmHg 81%
    20:00 +19°C° 0.1 mm 4 mps 758 mmHg 84%
    21:00 +19°C° 0.1 mm 4 mps 758 mmHg 87%
    22:00 +18°C° 0.1 mm 4 mps 758 mmHg 91%
    23:00 +18°C° 0.2 mm 4 mps 758 mmHg 91%
    Show more